Погода в Нивской

Россия / Вологодская область     60°46′55″N   42°43′23″E
темп.,
°C
ветер,
м/с
пор.,
м/с
влажн.,
%
обл.,
%
осадки,
мм/ч
давл.,
гПа
погр.,
м
8 марта, пн
пн800:00−11всв41093100 0.4 994546
03:00−12св4994100 0.9 995489
06:00−14св41094100 0.4 996504
09:00−13ссв4993100 0.9 999522
12:00−12ссв4890100 0.2 1001550
15:00−13с5989100 0.3 1003642
18:00−15с4994100 0.1 1006572
21:00−18с41095100 0.1 1009424
9 марта, вт
вт900:00−21с3897100 0.1 1010313
03:00−25ссз3798100 0.1 1013226
06:00−28ссз379898 0.0 1015210
09:00−27с369594 0.0 1017261
12:00−23с369173 0.0 1019429
15:00−20с369087 0.0 1020548
18:00−24ссз379685 0.0 1021183
21:00−27с239743 0.0 102335
10 марта, ср
ср1000:00−28сз12991 0.0 102419
03:00−26з229936 0.0 102431
06:00−23з379689 0.0 1023243
09:00−21сз369694 0.1 1023334
12:00−17ссз3590100 0.1 1023513
15:00−14ссз3688100 0.1 1023550
18:00−15зсз239587 0.0 102338
21:00−15зсз399783 0.0 1023252
11 марта, чт
чт1100:00−15сз4109598 0.0 1023309
03:00−14сз499299 0.0 1024328
06:00−19сз389035 0.0 1025169
09:00−15сз388426 0.0 1026266
12:00−10зсз48775 0.0 1025455
15:00−8зсз47748 0.0 1025692
18:00−12з23870 0.0 102447
21:00−15зюз36910 0.0 1024128
12 марта, пт
пт1200:00−15зюз310940 0.0 1023216
03:00−15юз39920 0.0 1022260
06:00−16юз312900 0.0 1022273
09:00−13юз411790 0.0 1021360
12:00−8ююз49770 0.0 1020487
15:00−7ююз49770 0.0 1018655
18:00−11ю311860 0.0 1017378
21:00−12ю414880 0.0 1016459